THAICOM 8

导读 | 豆包AI

THAICOM 8是泰国(TH)的一颗通信卫星,于2016年5月27日成功发射。该卫星由劳拉空间系统公司研制,采用1300卫星平台,定点于东经78.5度地球静止轨道,主要为南亚、东南亚及非洲地区提供高清电视广播、宽带通信等服务,设计服役时长15年,增强了区域通信覆盖能力,推动当地数字媒体和互联网服务发展,是泰国航天通信领域的重要基础设施。

基本信息
目录编号:
41552
目录名称:
THAICOM 8
国际标识:
2016-031A
轨道中心:
EARTH
卫星名称:
THAICOM 8
卫星全名:
--
卫星状态:
在轨 (已飞行3568 天)
发射日期:
2016-05-27 UTC
国别 :
(TH)
星等 :
--
轨道信息
数据来源 国际轨道数据 AOE轨道数据
星历时间 2026-03-04T10:25:47+0800
5小时前
查看轨道信息
2026-03-04T07:00:00+0800
9小时前
查看轨道信息
半长轴 42164.56km 42164.672km
偏心率 0.0004017 0.0004064
轨道倾角 0.068° 0.068°
近地点辐角 303.861° 304.560°
升交点赤经 47.239° 47.630°
平近点角 285.733° 233.054°
近地点 35769.485km 35769.399km
远地点 35803.361km 35803.671km
周期 1436.088分钟 1436.094分钟
每日圈数 1.002724 1.00272
详细信息
使用方式:
暂无
2D轨道图
3D轨道图
轨道高度分析图
轨道倾角分析图
轨道综合分析图
查看轨道综合分析图